Weather in Nagorsk

Russia / Kirov Oblast     59°18′55″N   50°48′23″E
temp.,
°C
wind,
m/s
gust,
m/s
humid.,
%
clouds,
%
prec.,
mm/h
press.,
hPa
HPBL,
m
12 april, mon
mon1200:00+3wsw279734 0.0 1033167
03:00+1wnw289712 0.0 1035148
06:00+1wnw158946 0.0 1038125
09:00+6wnw226120 0.0 1039432
12:00+9wnw12425 0.0 10391016
15:00+10w113846 0.0 10401087
18:00+7s11585 0.0 103910
21:00+4s22695 0.0 104011
13 april, tue
tue1300:00+2ssw238493 0.0 104054
03:00+1s2689100 0.0 1039124
06:00+2s2891100 0.0 1038205
09:00+7s4875100 0.0 1036404
12:00+11s5865100 0.0 1034678
15:00+12ssw4972100 0.0 1032677
18:00+10ssw41185100 0.0 1030448
21:00+8ssw31295100 0.0 1030346
14 april, wed
wed1400:00+8ssw31197100 0.0 1029269
03:00+6ssw299798 0.0 1029182
06:00+7ssw399399 0.0 1028199
09:00+12sw486799 0.0 1027399
12:00+16sw584957 0.0 1026942
15:00+17sw474468 0.0 10251392
18:00+13sw385811 0.0 1024186
21:00+9ssw3107681 0.0 1023207
15 april, thu
thu1500:00+8ssw3117964 0.0 1022237
03:00+6sw3108465 0.0 1022204
06:00+6sw3980100 0.0 1021208
09:00+12wsw365780 0.0 1020434
12:00+15wsw3546100 0.0 1019960
15:00+16w354536 0.0 10181639
18:00+10nne597866 0.0 1018424
21:00+6ne3786100 0.0 1019370
16 april, fri
fri1600:00+5nne3687100 0.0 1019447
03:00+4ne3695100 0.0 1018457
06:00+2nne3898100 1.4 1017294
09:00+2nne3799100 3.9 1017340
12:00+3n3798100 0.9 1017486
15:00+6n485498 1.1 10171793
18:00+4n5961100 0.3 1018874
21:00+1nnw411721 0.3 1019498